Time,TemperatureF,DewpointF,PressureIn,WindDirection,WindDirectionDegrees,WindSpeedMPH,WindSpeedGustMPH,Humidity,HourlyPrecipIn,Conditions,Clouds,dailyrainin,SoftwareType,DateUTC
2013-03-05 00:01:00,63.5,58.8,29.92,SSE,161,5.0,10.0,85,0.00,,,0.00,meteohub,2013-03-05 06:01:00,
2013-03-05 00:06:00,63.3,58.8,29.92,SSE,150,8.0,14.0,85,0.00,,,0.00,meteohub,2013-03-05 06:06:00,
2013-03-05 00:11:00,63.5,58.8,29.92,SSE,157,10.0,14.0,85,0.00,,,0.00,meteohub,2013-03-05 06:11:00,
2013-03-05 00:16:00,63.7,59.0,29.92,SSW,198,7.0,11.0,85,0.00,,,0.00,meteohub,2013-03-05 06:16:00,
2013-03-05 00:21:00,63.5,58.8,29.92,South,173,5.0,11.0,85,0.00,,,0.00,meteohub,2013-03-05 06:21:00,
2013-03-05 00:26:00,63.3,58.8,29.92,SE,145,5.0,10.0,85,0.00,,,0.00,meteohub,2013-03-05 06:26:00,
2013-03-05 00:31:00,63.1,58.6,29.92,SSE,151,7.0,12.0,85,0.00,,,0.00,meteohub,2013-03-05 06:31:00,
2013-03-05 00:36:00,63.0,58.6,29.91,South,173,3.0,12.0,86,0.00,,,0.00,meteohub,2013-03-05 06:36:00,
2013-03-05 00:41:00,62.8,58.5,29.92,SSE,162,9.0,12.0,86,0.00,,,0.00,meteohub,2013-03-05 06:41:00,
2013-03-05 00:46:00,62.6,58.3,29.92,SSE,156,7.0,12.0,86,0.00,,,0.00,meteohub,2013-03-05 06:46:00,
2013-03-05 00:51:00,62.4,58.5,29.92,SSE,165,3.0,12.0,87,0.00,,,0.00,meteohub,2013-03-05 06:51:00,
2013-03-05 00:56:00,62.2,58.3,29.92,SSE,156,6.0,10.0,87,0.00,,,0.00,meteohub,2013-03-05 06:56:00,
2013-03-05 01:01:00,62.2,58.6,29.92,SSE,164,5.0,10.0,88,0.00,,,0.00,meteohub,2013-03-05 07:01:00,
2013-03-05 01:07:00,62.2,58.6,29.92,South,169,3.0,10.0,88,0.00,,,0.00,meteohub,2013-03-05 07:07:00,
2013-03-05 01:12:00,62.1,58.5,29.92,SSE,161,4.0,10.0,88,0.00,,,0.00,meteohub,2013-03-05 07:12:00,
2013-03-05 01:17:00,62.1,58.5,29.92,SSE,156,4.0,8.0,88,0.00,,,0.00,meteohub,2013-03-05 07:17:00,
2013-03-05 01:22:00,62.1,58.5,29.92,SSE,155,2.0,8.0,88,0.00,,,0.00,meteohub,2013-03-05 07:22:00,
2013-03-05 01:27:00,62.1,58.5,29.92,SSE,155,3.0,7.0,88,0.00,,,0.00,meteohub,2013-03-05 07:27:00,
2013-03-05 01:32:00,61.9,58.3,29.92,South,175,4.0,7.0,88,0.00,,,0.00,meteohub,2013-03-05 07:32:00,
2013-03-05 01:37:00,61.9,58.3,29.93,South,179,3.0,6.0,88,0.00,,,0.00,meteohub,2013-03-05 07:37:00,
2013-03-05 01:42:00,61.7,58.1,29.92,SSE,159,3.0,6.0,88,0.00,,,0.00,meteohub,2013-03-05 07:42:00,
2013-03-05 01:47:00,61.5,57.9,29.92,SSE,149,6.0,8.0,88,0.00,,,0.00,meteohub,2013-03-05 07:47:00,
2013-03-05 01:52:00,61.5,58.3,29.92,SSE,156,4.0,8.0,89,0.00,,,0.00,meteohub,2013-03-05 07:52:00,
2013-03-05 01:57:00,61.5,57.9,29.92,SSE,153,5.0,8.0,88,0.00,,,0.00,meteohub,2013-03-05 07:57:00,
2013-03-05 02:02:00,61.5,57.9,29.91,SSE,151,6.0,9.0,88,0.00,,,0.00,meteohub,2013-03-05 08:02:00,
2013-03-05 02:07:00,61.5,57.9,29.91,SSE,150,7.0,9.0,88,0.00,,,0.00,meteohub,2013-03-05 08:07:00,
2013-03-05 02:11:00,61.9,58.3,29.91,SSE,150,6.0,9.0,88,0.00,,,0.00,meteohub,2013-03-05 08:11:00,
2013-03-05 02:17:00,62.1,58.5,29.91,SSE,151,7.0,9.0,88,0.00,,,0.00,meteohub,2013-03-05 08:17:00,
2013-03-05 02:22:00,62.1,58.1,29.91,SSE,167,5.0,9.0,87,0.00,,,0.00,meteohub,2013-03-05 08:22:00,
2013-03-05 02:27:00,62.1,58.5,29.92,SSE,167,4.0,9.0,88,0.00,,,0.00,meteohub,2013-03-05 08:27:00,
2013-03-05 02:32:00,62.2,58.6,29.91,SSE,157,5.0,9.0,88,0.00,,,0.00,meteohub,2013-03-05 08:32:00,
2013-03-05 02:37:00,62.4,58.5,29.91,SSE,150,7.0,8.0,87,0.00,,,0.00,meteohub,2013-03-05 08:37:00,
2013-03-05 02:42:00,62.4,58.5,29.91,SSE,163,5.0,8.0,87,0.00,,,0.00,meteohub,2013-03-05 08:42:00,
2013-03-05 02:47:00,62.4,58.5,29.91,SSE,154,8.0,9.0,87,0.00,,,0.00,meteohub,2013-03-05 08:47:00,
2013-03-05 02:52:00,62.4,58.5,29.91,South,172,4.0,9.0,87,0.00,,,0.00,meteohub,2013-03-05 08:52:00,
2013-03-05 02:57:00,62.4,58.5,29.91,SSE,165,7.0,9.0,87,0.00,,,0.00,meteohub,2013-03-05 08:57:00,
2013-03-05 03:02:00,62.6,58.6,29.91,SE,142,7.0,10.0,87,0.00,,,0.00,meteohub,2013-03-05 09:02:00,
2013-03-05 03:07:00,62.8,58.8,29.91,South,175,5.0,10.0,87,0.00,,,0.00,meteohub,2013-03-05 09:07:00,
2013-03-05 03:12:00,62.8,58.8,29.91,SSE,167,4.0,10.0,87,0.00,,,0.00,meteohub,2013-03-05 09:12:00,
2013-03-05 03:17:00,63.0,59.0,29.90,SSE,157,8.0,10.0,87,0.00,,,0.00,meteohub,2013-03-05 09:17:00,
2013-03-05 03:22:00,63.1,59.2,29.90,SSE,161,5.0,10.0,87,0.00,,,0.00,meteohub,2013-03-05 09:22:00,
2013-03-05 03:27:00,63.1,58.8,29.90,South,180,3.0,10.0,86,0.00,,,0.00,meteohub,2013-03-05 09:27:00,
2013-03-05 03:32:00,63.1,59.2,29.91,South,186,3.0,10.0,87,0.00,,,0.00,meteohub,2013-03-05 09:32:00,
2013-03-05 03:37:00,63.1,59.2,29.90,SSE,159,6.0,9.0,87,0.00,,,0.00,meteohub,2013-03-05 09:37:00,
2013-03-05 03:42:00,63.1,59.2,29.90,SSW,199,5.0,8.0,87,0.00,,,0.00,meteohub,2013-03-05 09:42:00,
2013-03-05 03:47:00,63.1,59.2,29.90,South,182,4.0,8.0,87,0.00,,,0.00,meteohub,2013-03-05 09:47:00,
2013-03-05 03:52:00,63.1,59.2,29.90,South,177,3.0,8.0,87,0.00,,,0.00,meteohub,2013-03-05 09:52:00,
2013-03-05 03:57:00,63.1,59.2,29.90,South,182,4.0,8.0,87,0.00,,,0.00,meteohub,2013-03-05 09:57:00,
2013-03-05 04:02:00,63.1,59.5,29.91,South,184,6.0,8.0,88,0.00,,,0.00,meteohub,2013-03-05 10:02:00,
2013-03-05 04:07:00,63.3,59.7,29.91,South,178,6.0,10.0,88,0.00,,,0.00,meteohub,2013-03-05 10:07:00,
2013-03-05 04:12:00,63.5,59.5,29.90,South,186,6.0,12.0,87,0.00,,,0.00,meteohub,2013-03-05 10:12:00,
2013-03-05 04:17:00,63.5,59.5,29.91,SSW,205,7.0,12.0,87,0.00,,,0.00,meteohub,2013-03-05 10:17:00,
2013-03-05 04:22:00,63.7,59.7,29.90,SSE,164,4.0,12.0,87,0.00,,,0.00,meteohub,2013-03-05 10:22:00,
2013-03-05 04:27:00,63.7,59.7,29.90,South,186,8.0,12.0,87,0.00,,,0.00,meteohub,2013-03-05 10:27:00,
2013-03-05 04:32:00,63.7,59.7,29.90,South,186,5.0,12.0,87,0.00,,,0.00,meteohub,2013-03-05 10:32:00,
2013-03-05 04:37:00,63.7,59.7,29.90,South,175,4.0,12.0,87,0.00,,,0.00,meteohub,2013-03-05 10:37:00,
2013-03-05 04:42:00,63.7,59.7,29.90,South,175,2.0,12.0,87,0.00,,,0.00,meteohub,2013-03-05 10:42:00,
2013-03-05 04:46:00,63.7,59.7,29.90,South,184,7.0,11.0,87,0.00,,,0.00,meteohub,2013-03-05 10:46:00,
2013-03-05 04:52:00,63.7,59.7,29.90,SSW,210,5.0,11.0,87,0.00,,,0.00,meteohub,2013-03-05 10:52:00,
2013-03-05 04:57:00,63.9,59.9,29.90,South,178,4.0,12.0,87,0.00,,,0.00,meteohub,2013-03-05 10:57:00,
2013-03-05 05:02:00,63.9,59.9,29.91,SSW,192,2.0,12.0,87,0.00,,,0.00,meteohub,2013-03-05 11:02:00,
2013-03-05 05:07:00,63.9,59.9,29.91,South,173,2.0,12.0,87,0.00,,,0.00,meteohub,2013-03-05 11:07:00,
2013-03-05 05:12:00,64.0,60.1,29.91,SSE,168,6.0,12.0,87,0.00,,,0.00,meteohub,2013-03-05 11:12:00,
2013-03-05 05:17:00,64.0,59.7,29.91,South,176,4.0,11.0,86,0.00,,,0.00,meteohub,2013-03-05 11:17:00,
2013-03-05 05:22:00,64.0,60.1,29.92,SSW,212,5.0,11.0,87,0.00,,,0.00,meteohub,2013-03-05 11:22:00,
2013-03-05 05:27:00,64.0,60.1,29.92,North,0,7.0,10.0,87,0.00,,,0.00,meteohub,2013-03-05 11:27:00,
2013-03-05 05:32:00,64.2,60.3,29.92,South,186,6.0,11.0,87,0.00,,,0.00,meteohub,2013-03-05 11:32:00,
2013-03-05 05:37:00,64.4,60.1,29.92,South,189,3.0,11.0,86,0.00,,,0.00,meteohub,2013-03-05 11:37:00,
2013-03-05 05:42:00,64.2,59.9,29.93,South,190,2.0,11.0,86,0.00,,,0.00,meteohub,2013-03-05 11:42:00,
2013-03-05 05:47:00,64.2,60.3,29.93,South,174,3.0,11.0,87,0.00,,,0.00,meteohub,2013-03-05 11:47:00,
2013-03-05 05:52:00,64.2,60.3,29.93,South,188,4.0,11.0,87,0.00,,,0.00,meteohub,2013-03-05 11:52:00,
2013-03-05 05:57:00,64.2,60.3,29.93,South,181,9.0,11.0,87,0.00,,,0.00,meteohub,2013-03-05 11:57:00,
2013-03-05 06:02:00,64.2,60.3,29.94,South,188,4.0,9.0,87,0.00,,,0.00,meteohub,2013-03-05 12:02:00,
2013-03-05 06:07:00,64.2,60.3,29.94,SSW,199,3.0,9.0,87,0.00,,,0.00,meteohub,2013-03-05 12:07:00,
2013-03-05 06:12:00,64.2,60.3,29.95,SSW,209,4.0,9.0,87,0.00,,,0.00,meteohub,2013-03-05 12:12:00,
2013-03-05 06:17:00,64.2,60.3,29.96,SW,223,4.0,9.0,87,0.00,,,0.00,meteohub,2013-03-05 12:17:00,
2013-03-05 06:22:00,64.2,60.3,29.97,SW,229,1.0,9.0,87,0.00,,,0.00,meteohub,2013-03-05 12:22:00,
2013-03-05 06:27:00,64.0,60.1,30.00,West,265,5.0,7.0,87,0.00,,,0.00,meteohub,2013-03-05 12:27:00,
2013-03-05 06:32:00,64.0,60.4,30.01,WNW,290,5.0,7.0,88,0.00,,,0.00,meteohub,2013-03-05 12:32:00,
2013-03-05 06:37:00,64.0,60.4,30.00,WNW,290,0.0,7.0,88,0.00,,,0.00,meteohub,2013-03-05 12:37:00,
2013-03-05 06:42:00,64.0,60.4,30.01,WNW,290,0.0,7.0,88,0.00,,,0.00,meteohub,2013-03-05 12:42:00,
2013-03-05 06:47:00,63.9,60.3,30.00,WNW,290,0.0,6.0,88,0.00,,,0.00,meteohub,2013-03-05 12:47:00,
2013-03-05 06:52:00,63.9,60.3,30.00,WNW,290,0.0,2.0,88,0.00,,,0.00,meteohub,2013-03-05 12:52:00,
2013-03-05 06:57:00,63.9,60.6,30.00,WNW,290,0.0,1.0,89,0.00,,,0.00,meteohub,2013-03-05 12:57:00,
2013-03-05 07:02:00,63.9,60.6,30.00,WNW,290,0.0,1.0,89,0.00,,,0.00,meteohub,2013-03-05 13:02:00,
2013-03-05 07:07:00,63.9,60.6,30.00,WNW,290,0.0,1.0,89,0.00,,,0.00,meteohub,2013-03-05 13:07:00,
2013-03-05 07:12:00,63.9,60.6,30.00,WNW,290,2.0,2.0,89,0.00,,,0.00,meteohub,2013-03-05 13:12:00,
2013-03-05 07:17:00,63.9,60.6,30.00,SSE,161,1.0,4.0,89,0.00,,,0.00,meteohub,2013-03-05 13:17:00,
2013-03-05 07:22:00,63.9,60.6,30.01,SSE,161,2.0,5.0,89,0.00,,,0.00,meteohub,2013-03-05 13:22:00,
2013-03-05 07:27:00,64.0,60.8,30.00,SSE,161,0.0,5.0,89,0.00,,,0.00,meteohub,2013-03-05 13:27:00,
2013-03-05 07:32:00,64.0,60.8,30.01,SSE,161,2.0,5.0,89,0.00,,,0.00,meteohub,2013-03-05 13:32:00,
2013-03-05 07:37:00,64.0,60.8,30.01,SSE,161,2.0,4.0,89,0.00,,,0.00,meteohub,2013-03-05 13:37:00,
2013-03-05 07:42:00,63.9,60.6,30.01,SSE,161,0.0,4.0,89,0.00,,,0.00,meteohub,2013-03-05 13:42:00,
2013-03-05 07:47:00,64.0,61.0,30.00,SSE,161,0.0,5.0,90,0.00,,,0.00,meteohub,2013-03-05 13:47:00,
2013-03-05 07:51:00,64.0,61.0,30.01,SSE,161,2.0,5.0,90,0.00,,,0.00,meteohub,2013-03-05 13:51:00,
2013-03-05 07:56:00,64.0,61.0,30.01,SSE,161,3.0,5.0,90,0.00,,,0.00,meteohub,2013-03-05 13:56:00,
2013-03-05 08:01:00,64.2,61.2,30.01,SSE,161,1.0,4.0,90,0.00,,,0.00,meteohub,2013-03-05 14:01:00,
2013-03-05 08:07:00,64.6,61.5,30.01,SSW,194,1.0,4.0,90,0.00,,,0.00,meteohub,2013-03-05 14:07:00,
2013-03-05 08:12:00,64.8,61.7,30.00,SSW,205,6.0,7.0,90,0.00,,,0.00,meteohub,2013-03-05 14:12:00,
2013-03-05 08:17:00,64.9,61.7,30.01,SSW,210,5.0,7.0,89,0.00,,,0.00,meteohub,2013-03-05 14:17:00,
2013-03-05 08:22:00,65.1,61.9,30.01,SSW,212,3.0,8.0,89,0.00,,,0.00,meteohub,2013-03-05 14:22:00,
2013-03-05 08:27:00,65.5,62.2,30.01,South,184,3.0,8.0,89,0.00,,,0.00,meteohub,2013-03-05 14:27:00,
2013-03-05 08:32:00,65.7,62.2,30.01,SSW,205,5.0,8.0,89,0.00,,,0.00,meteohub,2013-03-05 14:32:00,
2013-03-05 08:37:00,65.7,62.1,30.01,SSW,195,6.0,8.0,88,0.00,,,0.00,meteohub,2013-03-05 14:37:00,
2013-03-05 08:42:00,65.8,62.4,30.00,South,188,7.0,11.0,89,0.00,,,0.00,meteohub,2013-03-05 14:42:00,
2013-03-05 08:47:00,66.6,63.0,30.00,SSW,212,6.0,11.0,88,0.00,,,0.00,meteohub,2013-03-05 14:47:00,
2013-03-05 08:52:00,66.9,63.0,30.00,SSW,196,5.0,12.0,87,0.00,,,0.00,meteohub,2013-03-05 14:52:00,
2013-03-05 08:57:00,67.6,63.3,30.00,South,188,9.0,13.0,86,0.00,,,0.00,meteohub,2013-03-05 14:57:00,
2013-03-05 09:02:00,67.8,63.1,30.00,SSW,204,7.0,14.0,85,0.00,,,0.00,meteohub,2013-03-05 15:02:00,
2013-03-05 09:07:00,68.0,63.3,30.00,SSW,202,5.0,18.0,85,0.00,,,0.00,meteohub,2013-03-05 15:07:00,
2013-03-05 09:12:00,68.4,63.3,30.00,SSW,194,8.0,18.0,84,0.00,,,0.00,meteohub,2013-03-05 15:12:00,
2013-03-05 09:17:00,68.7,63.7,30.00,SSW,202,7.0,18.0,84,0.00,,,0.00,meteohub,2013-03-05 15:17:00,
2013-03-05 09:22:00,69.4,64.0,30.00,SW,215,10.0,15.0,83,0.00,,,0.00,meteohub,2013-03-05 15:22:00,
2013-03-05 09:27:00,69.6,63.5,30.00,SSW,211,8.0,14.0,81,0.00,,,0.00,meteohub,2013-03-05 15:27:00,
2013-03-05 09:32:00,70.0,63.5,30.00,WSW,240,6.0,18.0,80,0.00,,,0.00,meteohub,2013-03-05 15:32:00,
2013-03-05 09:37:00,70.3,63.5,30.00,WSW,238,8.0,18.0,79,0.00,,,0.00,meteohub,2013-03-05 15:37:00,
2013-03-05 09:42:00,70.5,63.3,30.00,WSW,247,10.0,18.0,78,0.00,,,0.00,meteohub,2013-03-05 15:42:00,
2013-03-05 09:47:00,70.9,63.3,30.00,SW,236,8.0,17.0,77,0.00,,,0.00,meteohub,2013-03-05 15:47:00,
2013-03-05 09:52:00,71.1,63.5,30.01,SW,236,8.0,18.0,77,0.00,,,0.00,meteohub,2013-03-05 15:52:00,
2013-03-05 09:57:00,71.1,62.8,30.00,West,261,11.0,18.0,75,0.00,,,0.00,meteohub,2013-03-05 15:57:00,
2013-03-05 10:02:00,71.2,63.0,30.01,WSW,239,8.0,20.0,75,0.00,,,0.00,meteohub,2013-03-05 16:02:00,
2013-03-05 10:07:00,71.2,63.0,30.01,SSW,211,8.0,20.0,75,0.00,,,0.00,meteohub,2013-03-05 16:07:00,
2013-03-05 10:12:00,71.2,62.6,30.01,SW,232,8.0,20.0,74,0.00,,,0.00,meteohub,2013-03-05 16:12:00,
2013-03-05 10:17:00,71.1,62.8,30.01,WSW,240,10.0,19.0,75,0.00,,,0.00,meteohub,2013-03-05 16:17:00,
2013-03-05 10:22:00,70.9,62.6,30.01,SW,221,10.0,19.0,75,0.00,,,0.00,meteohub,2013-03-05 16:22:00,
2013-03-05 10:27:00,70.9,63.0,30.01,SW,226,11.0,18.0,76,0.00,,,0.00,meteohub,2013-03-05 16:27:00,
2013-03-05 10:32:00,70.9,63.0,30.01,SW,233,10.0,18.0,76,0.00,,,0.00,meteohub,2013-03-05 16:32:00,
2013-03-05 10:37:00,70.9,63.3,30.01,SW,221,11.0,18.0,77,0.00,,,0.00,meteohub,2013-03-05 16:37:00,
2013-03-05 10:42:00,70.9,63.0,30.02,SW,225,6.0,15.0,76,0.00,,,0.00,meteohub,2013-03-05 16:42:00,
2013-03-05 10:47:00,70.9,63.3,30.02,WSW,258,7.0,14.0,77,0.00,,,0.00,meteohub,2013-03-05 16:47:00,
2013-03-05 10:52:00,71.1,63.1,30.02,West,262,12.0,14.0,76,0.00,,,0.00,meteohub,2013-03-05 16:52:00,
2013-03-05 10:57:00,71.1,62.8,30.02,West,263,12.0,17.0,75,0.00,,,0.00,meteohub,2013-03-05 16:57:00,
2013-03-05 11:02:00,70.9,62.6,30.02,WSW,254,19.0,19.0,75,0.00,,,0.00,meteohub,2013-03-05 17:02:00,
2013-03-05 11:07:00,70.9,63.0,30.02,WSW,253,3.0,19.0,76,0.00,,,0.00,meteohub,2013-03-05 17:07:00,
2013-03-05 11:12:00,70.9,63.0,30.03,West,277,7.0,19.0,76,0.00,,,0.00,meteohub,2013-03-05 17:12:00,
2013-03-05 11:17:00,70.9,63.3,30.03,West,275,12.0,19.0,77,0.00,,,0.00,meteohub,2013-03-05 17:17:00,
2013-03-05 11:22:00,70.5,63.0,30.03,WNW,294,14.0,21.0,77,0.00,,,0.00,meteohub,2013-03-05 17:22:00,
2013-03-05 11:27:00,70.2,62.6,30.03,WSW,247,11.0,21.0,77,0.00,,,0.00,meteohub,2013-03-05 17:27:00,
2013-03-05 11:32:00,70.3,62.8,30.02,West,278,9.0,21.0,77,0.00,,,0.00,meteohub,2013-03-05 17:32:00,
2013-03-05 11:37:00,70.5,62.6,30.02,West,271,9.0,20.0,76,0.00,,,0.00,meteohub,2013-03-05 17:37:00,
2013-03-05 11:42:00,70.5,62.6,30.02,West,263,10.0,20.0,76,0.00,,,0.00,meteohub,2013-03-05 17:42:00,
2013-03-05 11:47:00,70.9,62.6,30.02,WSW,258,13.0,18.0,75,0.00,,,0.00,meteohub,2013-03-05 17:47:00,
2013-03-05 11:52:00,71.2,63.0,30.02,WNW,284,7.0,18.0,75,0.00,,,0.00,meteohub,2013-03-05 17:52:00,
2013-03-05 11:57:00,71.8,63.0,30.02,WSW,248,10.0,18.0,74,0.00,,,0.00,meteohub,2013-03-05 17:57:00,
2013-03-05 12:02:00,71.4,62.8,30.02,West,269,17.0,17.0,74,0.00,,,0.00,meteohub,2013-03-05 18:02:00,
2013-03-05 12:07:00,70.5,61.0,30.03,WNW,302,15.0,19.0,72,0.00,,,0.00,meteohub,2013-03-05 18:07:00,
2013-03-05 12:12:00,68.4,59.0,30.04,WNW,292,19.0,27.0,72,0.00,,,0.00,meteohub,2013-03-05 18:12:00,
2013-03-05 12:17:00,67.6,58.3,30.04,NW,323,12.0,27.0,72,0.00,,,0.00,meteohub,2013-03-05 18:17:00,
2013-03-05 12:23:00,67.6,58.3,30.04,WNW,298,12.0,27.0,72,0.00,,,0.00,meteohub,2013-03-05 18:23:00,
2013-03-05 12:28:00,68.2,57.6,30.04,WNW,296,8.0,24.0,69,0.00,,,0.00,meteohub,2013-03-05 18:28:00,
2013-03-05 12:33:00,68.5,57.9,30.04,NW,309,5.0,19.0,69,0.00,,,0.00,meteohub,2013-03-05 18:33:00,
2013-03-05 12:38:00,68.9,57.6,30.03,WNW,285,8.0,18.0,67,0.00,,,0.00,meteohub,2013-03-05 18:38:00,
2013-03-05 12:43:00,69.4,57.6,30.03,NW,311,5.0,18.0,66,0.00,,,0.00,meteohub,2013-03-05 18:43:00,
2013-03-05 12:48:00,70.2,58.3,30.02,NW,305,9.0,18.0,66,0.00,,,0.00,meteohub,2013-03-05 18:48:00,
2013-03-05 12:53:00,70.9,58.1,30.02,NW,317,10.0,18.0,64,0.00,,,0.00,meteohub,2013-03-05 18:53:00,
2013-03-05 12:58:00,71.2,56.1,30.02,NW,309,10.0,19.0,59,0.00,,,0.00,meteohub,2013-03-05 18:58:00,
2013-03-05 13:03:00,71.2,55.2,30.01,WNW,299,12.0,19.0,57,0.00,,,0.00,meteohub,2013-03-05 19:03:00,
2013-03-05 13:08:00,71.8,55.2,30.01,NW,304,10.0,17.0,56,0.00,,,0.00,meteohub,2013-03-05 19:08:00,
2013-03-05 13:13:00,71.8,54.3,30.01,WNW,302,15.0,17.0,54,0.00,,,0.00,meteohub,2013-03-05 19:13:00,
2013-03-05 13:18:00,72.0,54.9,30.01,NW,304,8.0,16.0,55,0.00,,,0.00,meteohub,2013-03-05 19:18:00,
2013-03-05 13:23:00,71.2,54.3,30.01,NW,324,9.0,15.0,55,0.00,,,0.00,meteohub,2013-03-05 19:23:00,
2013-03-05 13:28:00,71.2,55.2,30.01,NNW,330,10.0,19.0,57,0.00,,,0.00,meteohub,2013-03-05 19:28:00,
2013-03-05 13:33:00,71.2,55.2,30.01,NW,317,9.0,20.0,57,0.00,,,0.00,meteohub,2013-03-05 19:33:00,
2013-03-05 13:38:00,71.8,55.2,30.01,WNW,300,5.0,20.0,56,0.00,,,0.00,meteohub,2013-03-05 19:38:00,
2013-03-05 13:43:00,72.1,55.0,30.01,WNW,292,12.0,20.0,55,0.00,,,0.00,meteohub,2013-03-05 19:43:00,
2013-03-05 13:48:00,71.8,54.3,30.01,WNW,301,11.0,18.0,54,0.00,,,0.00,meteohub,2013-03-05 19:48:00,
2013-03-05 13:53:00,71.8,54.3,30.01,WNW,302,11.0,14.0,54,0.00,,,0.00,meteohub,2013-03-05 19:53:00,
2013-03-05 13:58:00,72.1,54.1,30.01,NW,315,11.0,16.0,53,0.00,,,0.00,meteohub,2013-03-05 19:58:00,
2013-03-05 14:03:00,72.3,53.8,30.01,NW,312,12.0,16.0,52,0.00,,,0.00,meteohub,2013-03-05 20:03:00,
2013-03-05 14:08:00,72.0,52.9,30.01,NW,316,19.0,19.0,51,0.00,,,0.00,meteohub,2013-03-05 20:08:00,
2013-03-05 14:13:00,72.0,52.3,30.01,NW,306,10.0,20.0,50,0.00,,,0.00,meteohub,2013-03-05 20:13:00,
2013-03-05 14:18:00,72.1,52.5,30.01,WNW,301,12.0,20.0,50,0.00,,,0.00,meteohub,2013-03-05 20:18:00,
2013-03-05 14:23:00,72.5,51.6,30.01,NNW,335,15.0,20.0,48,0.00,,,0.00,meteohub,2013-03-05 20:23:00,
2013-03-05 14:28:00,72.3,51.4,30.01,NW,312,12.0,19.0,48,0.00,,,0.00,meteohub,2013-03-05 20:28:00,
2013-03-05 14:33:00,72.3,51.4,30.02,NW,321,10.0,19.0,48,0.00,,,0.00,meteohub,2013-03-05 20:33:00,
2013-03-05 14:38:00,72.3,49.8,30.02,NW,313,16.0,19.0,45,0.00,,,0.00,meteohub,2013-03-05 20:38:00,
2013-03-05 14:43:00,72.1,49.6,30.02,NW,308,9.0,20.0,45,0.00,,,0.00,meteohub,2013-03-05 20:43:00,
2013-03-05 14:48:00,72.1,49.6,30.02,NW,306,13.0,20.0,45,0.00,,,0.00,meteohub,2013-03-05 20:48:00,
2013-03-05 14:53:00,72.1,49.1,30.02,WNW,303,7.0,21.0,44,0.00,,,0.00,meteohub,2013-03-05 20:53:00,
2013-03-05 14:58:00,72.0,48.9,30.03,WNW,286,11.0,21.0,44,0.00,,,0.00,meteohub,2013-03-05 20:58:00,
2013-03-05 15:03:00,71.6,49.6,30.02,West,275,7.0,21.0,46,0.00,,,0.00,meteohub,2013-03-05 21:03:00,
2013-03-05 15:08:00,71.4,50.2,30.03,WNW,303,14.0,21.0,47,0.00,,,0.00,meteohub,2013-03-05 21:08:00,
2013-03-05 15:13:00,71.4,49.6,30.03,West,269,10.0,21.0,46,0.00,,,0.00,meteohub,2013-03-05 21:13:00,
2013-03-05 15:18:00,71.6,49.1,30.03,NW,304,14.0,19.0,45,0.00,,,0.00,meteohub,2013-03-05 21:18:00,
2013-03-05 15:24:00,71.4,48.4,30.03,WNW,284,13.0,19.0,44,0.00,,,0.00,meteohub,2013-03-05 21:24:00,
2013-03-05 15:29:00,71.1,48.6,30.03,WNW,303,11.0,18.0,45,0.00,,,0.00,meteohub,2013-03-05 21:29:00,
2013-03-05 15:34:00,71.4,47.8,30.03,NW,319,9.0,20.0,43,0.00,,,0.00,meteohub,2013-03-05 21:34:00,
2013-03-05 15:39:00,71.2,47.7,30.03,NW,318,9.0,20.0,43,0.00,,,0.00,meteohub,2013-03-05 21:39:00,
2013-03-05 15:44:00,71.2,47.7,30.03,WNW,287,7.0,20.0,43,0.00,,,0.00,meteohub,2013-03-05 21:44:00,
2013-03-05 15:49:00,71.2,45.7,30.04,NW,321,11.0,18.0,40,0.00,,,0.00,meteohub,2013-03-05 21:49:00,
2013-03-05 15:54:00,71.2,47.7,30.04,WNW,299,7.0,18.0,43,0.00,,,0.00,meteohub,2013-03-05 21:54:00,
2013-03-05 15:59:00,71.4,44.4,30.04,NW,311,14.0,17.0,38,0.00,,,0.00,meteohub,2013-03-05 21:59:00,
2013-03-05 16:04:00,71.1,41.4,30.04,NW,312,11.0,18.0,34,0.00,,,0.00,meteohub,2013-03-05 22:04:00,
2013-03-05 16:09:00,70.9,39.6,30.04,NW,323,15.0,21.0,32,0.00,,,0.00,meteohub,2013-03-05 22:09:00,
2013-03-05 16:14:00,70.7,39.4,30.04,NW,323,13.0,21.0,32,0.00,,,0.00,meteohub,2013-03-05 22:14:00,
2013-03-05 16:19:00,70.5,39.2,30.05,NNW,331,16.0,24.0,32,0.00,,,0.00,meteohub,2013-03-05 22:19:00,
2013-03-05 16:24:00,70.5,40.8,30.04,NW,319,12.0,24.0,34,0.00,,,0.00,meteohub,2013-03-05 22:24:00,
2013-03-05 16:29:00,70.5,40.8,30.04,NW,318,15.0,23.0,34,0.00,,,0.00,meteohub,2013-03-05 22:29:00,
2013-03-05 16:34:00,70.3,41.4,30.05,WNW,302,10.0,23.0,35,0.00,,,0.00,meteohub,2013-03-05 22:34:00,
2013-03-05 16:39:00,70.3,40.6,30.04,NW,307,8.0,22.0,34,0.00,,,0.00,meteohub,2013-03-05 22:39:00,
2013-03-05 16:44:00,70.2,38.8,30.05,NNW,329,8.0,22.0,32,0.00,,,0.00,meteohub,2013-03-05 22:44:00,
2013-03-05 16:49:00,70.2,38.8,30.05,NNW,330,10.0,19.0,32,0.00,,,0.00,meteohub,2013-03-05 22:49:00,
2013-03-05 16:54:00,70.2,38.8,30.05,NW,314,8.0,21.0,32,0.00,,,0.00,meteohub,2013-03-05 22:54:00,
2013-03-05 16:59:00,70.0,38.8,30.06,WNW,290,12.0,21.0,32,0.00,,,0.00,meteohub,2013-03-05 22:59:00,
2013-03-05 17:04:00,69.6,38.5,30.06,NW,309,9.0,21.0,32,0.00,,,0.00,meteohub,2013-03-05 23:04:00,
2013-03-05 17:09:00,69.6,39.2,30.06,NW,306,14.0,20.0,33,0.00,,,0.00,meteohub,2013-03-05 23:09:00,
2013-03-05 17:14:00,69.4,39.0,30.06,NW,311,13.0,20.0,33,0.00,,,0.00,meteohub,2013-03-05 23:14:00,
2013-03-05 17:19:00,69.3,38.1,30.06,NW,305,10.0,19.0,32,0.00,,,0.00,meteohub,2013-03-05 23:19:00,
2013-03-05 17:24:00,69.1,37.9,30.07,NW,311,8.0,20.0,32,0.00,,,0.00,meteohub,2013-03-05 23:24:00,
2013-03-05 17:29:00,68.7,37.6,30.07,NW,322,12.0,20.0,32,0.00,,,0.00,meteohub,2013-03-05 23:29:00,
2013-03-05 17:34:00,68.5,38.3,30.07,NW,305,7.0,20.0,33,0.00,,,0.00,meteohub,2013-03-05 23:34:00,
2013-03-05 17:39:00,68.2,38.7,30.07,NW,304,8.0,17.0,34,0.00,,,0.00,meteohub,2013-03-05 23:39:00,
2013-03-05 17:44:00,67.8,37.6,30.08,NW,313,9.0,17.0,33,0.00,,,0.00,meteohub,2013-03-05 23:44:00,
2013-03-05 17:49:00,67.6,38.3,30.08,WNW,300,16.0,16.0,34,0.00,,,0.00,meteohub,2013-03-05 23:49:00,
2013-03-05 17:54:00,67.5,38.8,30.08,WNW,301,6.0,17.0,35,0.00,,,0.00,meteohub,2013-03-05 23:54:00,
2013-03-05 17:59:00,66.9,39.0,30.08,WNW,290,8.0,17.0,36,0.00,,,0.00,meteohub,2013-03-05 23:59:00,
2013-03-05 18:04:00,66.7,38.3,30.09,WNW,300,8.0,17.0,35,0.00,,,0.00,meteohub,2013-03-06 00:04:00,
2013-03-05 18:09:00,66.4,39.4,30.09,NW,304,5.0,15.0,37,0.00,,,0.00,meteohub,2013-03-06 00:09:00,
2013-03-05 18:14:00,66.0,39.0,30.09,NW,307,4.0,14.0,37,0.00,,,0.00,meteohub,2013-03-06 00:14:00,
2013-03-05 18:19:00,65.8,38.8,30.09,NW,311,5.0,14.0,37,0.00,,,0.00,meteohub,2013-03-06 00:19:00,
2013-03-05 18:24:00,65.5,38.5,30.09,NW,304,5.0,10.0,37,0.00,,,0.00,meteohub,2013-03-06 00:24:00,
2013-03-05 18:29:00,65.3,39.0,30.09,NW,304,6.0,10.0,38,0.00,,,0.00,meteohub,2013-03-06 00:29:00,
2013-03-05 18:34:00,65.1,38.8,30.09,WNW,298,8.0,10.0,38,0.00,,,0.00,meteohub,2013-03-06 00:34:00,
2013-03-05 18:39:00,64.9,38.7,30.10,WNW,300,5.0,10.0,38,0.00,,,0.00,meteohub,2013-03-06 00:39:00,
2013-03-05 18:44:00,64.9,39.4,30.10,WNW,296,4.0,10.0,39,0.00,,,0.00,meteohub,2013-03-06 00:44:00,
2013-03-05 18:49:00,64.8,39.2,30.10,NW,304,6.0,9.0,39,0.00,,,0.00,meteohub,2013-03-06 00:49:00,
2013-03-05 18:54:00,64.6,39.0,30.10,WNW,302,5.0,9.0,39,0.00,,,0.00,meteohub,2013-03-06 00:54:00,
2013-03-05 18:59:00,64.2,39.4,30.10,WNW,302,4.0,11.0,40,0.00,,,0.00,meteohub,2013-03-06 00:59:00,
2013-03-05 19:04:00,64.0,39.9,30.11,WNW,298,5.0,11.0,41,0.00,,,0.00,meteohub,2013-03-06 01:04:00,
2013-03-05 19:09:00,63.9,39.7,30.11,WNW,298,4.0,11.0,41,0.00,,,0.00,meteohub,2013-03-06 01:09:00,
2013-03-05 19:15:00,63.7,39.6,30.11,WNW,298,3.0,8.0,41,0.00,,,0.00,meteohub,2013-03-06 01:15:00,
2013-03-05 19:20:00,63.5,39.9,30.11,WNW,298,4.0,8.0,42,0.00,,,0.00,meteohub,2013-03-06 01:20:00,
2013-03-05 19:25:00,63.3,39.9,30.11,WNW,299,4.0,7.0,42,0.00,,,0.00,meteohub,2013-03-06 01:25:00,
2013-03-05 19:30:00,63.1,40.3,30.11,WNW,300,2.0,7.0,43,0.00,,,0.00,meteohub,2013-03-06 01:30:00,
2013-03-05 19:35:00,62.8,39.9,30.12,WNW,300,5.0,7.0,43,0.00,,,0.00,meteohub,2013-03-06 01:35:00,
2013-03-05 19:40:00,62.8,39.9,30.12,WNW,300,3.0,7.0,43,0.00,,,0.00,meteohub,2013-03-06 01:40:00,
2013-03-05 19:45:00,62.4,40.3,30.12,WNW,302,6.0,6.0,44,0.00,,,0.00,meteohub,2013-03-06 01:45:00,
2013-03-05 19:50:00,62.4,40.3,30.12,WNW,298,5.0,9.0,44,0.00,,,0.00,meteohub,2013-03-06 01:50:00,
2013-03-05 19:55:00,62.2,40.1,30.12,WNW,297,4.0,9.0,44,0.00,,,0.00,meteohub,2013-03-06 01:55:00,
2013-03-05 20:00:00,62.1,39.9,30.13,NW,304,4.0,9.0,44,0.00,,,0.00,meteohub,2013-03-06 02:00:00,
2013-03-05 20:05:00,61.9,39.7,30.13,NW,307,6.0,10.0,44,0.00,,,0.00,meteohub,2013-03-06 02:05:00,
2013-03-05 20:10:00,61.5,39.9,30.13,NW,307,6.0,10.0,45,0.00,,,0.00,meteohub,2013-03-06 02:10:00,
2013-03-05 20:15:00,61.3,39.7,30.13,NW,304,5.0,10.0,45,0.00,,,0.00,meteohub,2013-03-06 02:15:00,
2013-03-05 20:20:00,61.2,40.3,30.14,NW,305,6.0,8.0,46,0.00,,,0.00,meteohub,2013-03-06 02:20:00,
2013-03-05 20:25:00,61.2,40.3,30.14,NW,306,8.0,10.0,46,0.00,,,0.00,meteohub,2013-03-06 02:25:00,
2013-03-05 20:30:00,61.0,40.1,30.14,NW,309,6.0,10.0,46,0.00,,,0.00,meteohub,2013-03-06 02:30:00,
2013-03-05 20:35:00,60.8,39.4,30.15,NW,309,5.0,10.0,45,0.00,,,0.00,meteohub,2013-03-06 02:35:00,
2013-03-05 20:40:00,60.6,39.2,30.15,NW,311,5.0,11.0,45,0.00,,,0.00,meteohub,2013-03-06 02:40:00,
2013-03-05 20:45:00,60.3,39.4,30.15,NW,313,4.0,11.0,46,0.00,,,0.00,meteohub,2013-03-06 02:45:00,
2013-03-05 20:50:00,60.1,39.7,30.15,NW,314,6.0,11.0,47,0.00,,,0.00,meteohub,2013-03-06 02:50:00,
2013-03-05 20:55:00,59.5,39.4,30.16,NW,312,7.0,10.0,47,0.00,,,0.00,meteohub,2013-03-06 02:55:00,
2013-03-05 21:00:00,59.4,40.3,30.16,NW,320,8.0,10.0,49,0.00,,,0.00,meteohub,2013-03-06 03:00:00,
2013-03-05 21:05:00,59.0,39.4,30.16,NW,316,9.0,11.0,48,0.00,,,0.00,meteohub,2013-03-06 03:05:00,
2013-03-05 21:10:00,58.8,39.2,30.16,NW,317,7.0,11.0,48,0.00,,,0.00,meteohub,2013-03-06 03:10:00,
2013-03-05 21:15:00,58.6,39.0,30.17,NW,313,7.0,11.0,48,0.00,,,0.00,meteohub,2013-03-06 03:15:00,
2013-03-05 21:20:00,58.5,39.4,30.17,NW,315,6.0,11.0,49,0.00,,,0.00,meteohub,2013-03-06 03:20:00,
2013-03-05 21:25:00,57.9,38.8,30.17,NW,314,7.0,11.0,49,0.00,,,0.00,meteohub,2013-03-06 03:25:00,
2013-03-05 21:30:00,57.9,38.8,30.17,NW,312,4.0,9.0,49,0.00,,,0.00,meteohub,2013-03-06 03:30:00,
2013-03-05 21:35:00,57.6,38.5,30.18,NW,313,4.0,7.0,49,0.00,,,0.00,meteohub,2013-03-06 03:35:00,
2013-03-05 21:40:00,57.6,38.5,30.18,NW,313,3.0,7.0,49,0.00,,,0.00,meteohub,2013-03-06 03:40:00,
2013-03-05 21:45:00,57.2,38.3,30.18,NW,313,4.0,6.0,49,0.00,,,0.00,meteohub,2013-03-06 03:45:00,
2013-03-05 21:50:00,57.0,38.1,30.18,NW,313,4.0,6.0,49,0.00,,,0.00,meteohub,2013-03-06 03:50:00,
2013-03-05 21:55:00,56.8,37.9,30.18,NW,313,4.0,6.0,49,0.00,,,0.00,meteohub,2013-03-06 03:55:00,
2013-03-05 22:00:00,56.8,37.9,30.19,NW,313,3.0,6.0,49,0.00,,,0.00,meteohub,2013-03-06 04:00:00,
2013-03-05 22:05:00,56.7,38.3,30.19,NW,313,3.0,6.0,50,0.00,,,0.00,meteohub,2013-03-06 04:05:00,
2013-03-05 22:10:00,56.5,38.1,30.19,NW,313,5.0,6.0,50,0.00,,,0.00,meteohub,2013-03-06 04:10:00,
2013-03-05 22:15:00,56.1,37.8,30.19,NW,313,4.0,7.0,50,0.00,,,0.00,meteohub,2013-03-06 04:15:00,
2013-03-05 22:20:00,55.9,37.6,30.19,NW,313,3.0,7.0,50,0.00,,,0.00,meteohub,2013-03-06 04:20:00,
2013-03-05 22:25:00,55.9,37.0,30.20,NW,314,4.0,6.0,49,0.00,,,0.00,meteohub,2013-03-06 04:25:00,
2013-03-05 22:30:00,55.9,36.5,30.20,NW,309,3.0,8.0,48,0.00,,,0.00,meteohub,2013-03-06 04:30:00,
2013-03-05 22:35:00,55.9,37.0,30.20,NW,309,3.0,8.0,49,0.00,,,0.00,meteohub,2013-03-06 04:35:00,
2013-03-05 22:40:00,55.9,36.5,30.20,NW,309,3.0,8.0,48,0.00,,,0.00,meteohub,2013-03-06 04:40:00,
2013-03-05 22:45:00,55.9,36.5,30.21,NW,309,4.0,7.0,48,0.00,,,0.00,meteohub,2013-03-06 04:45:00,
2013-03-05 22:50:00,55.9,37.0,30.20,WNW,303,7.0,7.0,49,0.00,,,0.00,meteohub,2013-03-06 04:50:00,
2013-03-05 22:55:00,55.8,36.9,30.21,WNW,303,6.0,7.0,49,0.00,,,0.00,meteohub,2013-03-06 04:55:00,
2013-03-05 23:00:00,55.6,36.7,30.21,WNW,303,5.0,7.0,49,0.00,,,0.00,meteohub,2013-03-06 05:00:00,
2013-03-05 23:05:00,55.4,36.5,30.21,NW,304,4.0,8.0,49,0.00,,,0.00,meteohub,2013-03-06 05:05:00,
2013-03-05 23:10:00,55.2,36.9,30.21,NW,309,6.0,8.0,50,0.00,,,0.00,meteohub,2013-03-06 05:10:00,
2013-03-05 23:15:00,54.9,36.5,30.21,NW,313,7.0,8.0,50,0.00,,,0.00,meteohub,2013-03-06 05:15:00,
2013-03-05 23:21:00,54.9,36.5,30.21,NW,309,5.0,10.0,50,0.00,,,0.00,meteohub,2013-03-06 05:21:00,
2013-03-05 23:26:00,54.7,36.9,30.22,NW,316,6.0,12.0,51,0.00,,,0.00,meteohub,2013-03-06 05:26:00,
2013-03-05 23:31:00,54.3,36.5,30.22,NW,319,7.0,12.0,51,0.00,,,0.00,meteohub,2013-03-06 05:31:00,
2013-03-05 23:36:00,54.3,36.1,30.22,NW,320,6.0,12.0,50,0.00,,,0.00,meteohub,2013-03-06 05:36:00,
2013-03-05 23:41:00,54.5,35.8,30.22,NW,320,13.0,13.0,49,0.00,,,0.00,meteohub,2013-03-06 05:41:00,
2013-03-05 23:46:00,54.7,34.9,30.22,NNW,327,12.0,18.0,47,0.00,,,0.00,meteohub,2013-03-06 05:46:00,
2013-03-05 23:51:00,54.5,34.2,30.22,NW,305,8.0,18.0,46,0.00,,,0.00,meteohub,2013-03-06 05:51:00,
2013-03-05 23:56:00,54.3,34.0,30.23,NNW,327,11.0,18.0,46,0.00,,,0.00,meteohub,2013-03-06 05:56:00,